This is the latest recevied weather packets stored in our database for station/object N3SBK. If no packets are shown the sender has not sent any weather packets the latest 10 day(s).
| Time | Temp. | Humidity | Pressure | Rain* | Wind** | Luminosity | Snow |
|---|---|---|---|---|---|---|---|
| 1777637120 | 2.78° C | 98% | 1005.2 hPa | 0 mm | - | 29 W/m² | - |
| 1777636816 | 2.78° C | 98% | 1005.2 hPa | 0 mm | - | 36 W/m² | - |
| 1777636511 | 2.22° C | 98% | 1005.3 hPa | 0 mm | - | 50 W/m² | - |
| 1777636208 | 2.22° C | 98% | 1005.1 hPa | 0 mm | - | 70 W/m² | - |
| 1777635903 | 1.67° C | 98% | 1005.1 hPa | 0 mm | - | 52 W/m² | - |
| 1777635599 | 1.11° C | 98% | 1005.3 hPa | 0 mm | - | 44 W/m² | - |
| 1777635296 | 0.56° C | 98% | 1005.2 hPa | 0 mm | - | 26 W/m² | - |
| 1777634993 | 0.56° C | 98% | 1005.3 hPa | 0 mm | - | 24 W/m² | - |
| 1777634689 | 0.56° C | 98% | 1005.3 hPa | 0 mm | - | 22 W/m² | - |
| 1777634387 | 0.56° C | 97% | 1005.2 hPa | 0 mm | - | 21 W/m² | - |
| 1777634083 | 1.11° C | 97% | 1005.1 hPa | 0 mm | - | 20 W/m² | - |
| 1777633780 | 1.11° C | 98% | 1005 hPa | 0 mm | - | 18 W/m² | - |
| 1777633478 | 0.56° C | 98% | 1005.2 hPa | 0 mm | - | 17 W/m² | - |
| 1777633176 | 0.56° C | 98% | 1005.1 hPa | 0 mm | - | 15 W/m² | - |
| 1777632872 | 0.56° C | 98% | 1005.1 hPa | 0 mm | - | 13 W/m² | - |
| 1777632568 | 0° C | 98% | 1005.1 hPa | 0 mm | - | 12 W/m² | - |
| 1777632266 | 0° C | 97% | 1005.2 hPa | 0 mm | - | 10 W/m² | - |
| 1777631962 | 0° C | 97% | 1005.3 hPa | 0 mm | - | 8 W/m² | - |
| 1777631661 | 0.56° C | 97% | 1005.1 hPa | 0 mm | - | 7 W/m² | - |
| 1777631357 | 0.56° C | 97% | 1005 hPa | 0 mm | - | 5 W/m² | - |
| 1777631055 | 0.56° C | 98% | 1004.8 hPa | 0 mm | - | 3 W/m² | - |
| 1777630751 | 0.56° C | 98% | 1005 hPa | 0 mm | - | 2 W/m² | - |
| 1777630448 | 0.56° C | 98% | 1005.1 hPa | 0 mm | - | 1 W/m² | - |
| 1777630145 | 1.11° C | 98% | 1005.1 hPa | 0 mm | - | 1 W/m² | - |
| 1777629842 | 0.56° C | 98% | 1004.8 hPa | 0 mm | - | 0 W/m² | - |
* Rain latest hour (hover to see other rain measurements)
** Current wind speed in m/s (hover to see current wind gust speed)